Location: Gwatt
(46.7204°N, 7.6223°E)
Time: 02:01:13
(UTC+00:00)

Cosmos 1844 Rocket - Pass Details

Date: 18 September 2020
Orbit: 823 x 846 km, 71.0° (Epoch: 29 October)

Event Time Altitude Azimuth Distance (km) Brightness Sun altitude
Rises 19:37:51 0° 200° (SSW) 3,344 5.7 -21.2°
Reaches altitude 10° 19:40:16 10° 199° (SSW) 2,417 5.0 -21.5°
Maximum altitude 19:45:48 78° 114° (ESE) 850 2.5 -22.4°
Drops below altitude 10° 19:51:23 10° 29° (NNE) 2,443 5.1 -23.2°
Sets 19:53:50 0° 28° (NNE) 3,383 5.9 -23.6°
